Time,TemperatureF,DewpointF,PressureIn,WindDirection,WindDirectionDegrees,WindSpeedMPH,WindSpeedGustMPH,Humidity,HourlyPrecipIn,Conditions,Clouds,dailyrainin,SoftwareType,DateUTC
2016-08-29 00:05:00,56.8,55.0,30.24,South,173,0.0,0.0,94,0.00,,,0.00,weatherlink.com 1.10,2016-08-29 04:05:00,
2016-08-29 00:20:00,56.6,55.0,30.23,South,173,0.0,0.0,94,0.00,,,0.00,weatherlink.com 1.10,2016-08-29 04:20:00,
2016-08-29 00:35:00,56.4,55.0,30.23,South,173,0.0,0.0,94,0.00,,,0.00,weatherlink.com 1.10,2016-08-29 04:35:00,
2016-08-29 00:50:00,56.4,55.0,30.23,South,172,0.0,0.0,94,0.00,,,0.00,weatherlink.com 1.10,2016-08-29 04:50:00,
2016-08-29 01:06:00,56.2,55.0,30.23,South,172,0.0,0.0,94,0.00,,,0.00,weatherlink.com 1.10,2016-08-29 05:06:00,
2016-08-29 01:21:00,56.1,54.0,30.24,South,173,0.0,0.0,94,0.00,,,0.00,weatherlink.com 1.10,2016-08-29 05:21:00,
2016-08-29 01:51:00,55.8,54.0,30.24,South,172,0.0,0.0,94,0.00,,,0.00,weatherlink.com 1.10,2016-08-29 05:51:00,
2016-08-29 02:06:00,55.7,54.0,30.24,South,173,0.0,0.0,94,0.00,,,0.00,weatherlink.com 1.10,2016-08-29 06:06:00,
2016-08-29 02:21:00,55.5,54.0,30.24,South,173,0.0,0.0,94,0.00,,,0.00,weatherlink.com 1.10,2016-08-29 06:21:00,
2016-08-29 02:36:00,55.5,54.0,30.23,South,173,0.0,0.0,94,0.00,,,0.00,weatherlink.com 1.10,2016-08-29 06:36:00,
2016-08-29 02:51:00,55.6,54.0,30.23,South,173,0.0,0.0,95,0.00,,,0.00,weatherlink.com 1.10,2016-08-29 06:51:00,
2016-08-29 03:06:00,55.4,54.0,30.23,South,173,0.0,0.0,94,0.00,,,0.00,weatherlink.com 1.10,2016-08-29 07:06:00,
2016-08-29 03:21:00,55.3,54.0,30.23,South,173,0.0,0.0,94,0.00,,,0.00,weatherlink.com 1.10,2016-08-29 07:21:00,
2016-08-29 03:36:00,55.3,54.0,30.23,South,172,0.0,0.0,95,0.00,,,0.00,weatherlink.com 1.10,2016-08-29 07:36:00,
2016-08-29 03:51:00,55.4,54.0,30.24,South,173,0.0,0.0,95,0.00,,,0.00,weatherlink.com 1.10,2016-08-29 07:51:00,
2016-08-29 04:06:00,55.5,54.0,30.24,South,172,0.0,0.0,95,0.00,,,0.00,weatherlink.com 1.10,2016-08-29 08:06:00,
2016-08-29 04:21:00,58.6,58.0,30.24,ESE,120,0.0,2.0,96,0.00,,,0.00,weatherlink.com 1.10,2016-08-29 08:21:00,
2016-08-29 04:36:00,59.3,58.0,30.24,ESE,120,0.0,2.0,96,0.00,,,0.00,weatherlink.com 1.10,2016-08-29 08:36:00,
2016-08-29 04:51:00,59.8,59.0,30.23,East,82,0.0,2.0,96,0.00,,,0.00,weatherlink.com 1.10,2016-08-29 08:51:00,
2016-08-29 05:06:00,60.0,59.0,30.23,East,82,0.0,1.0,96,0.00,,,0.00,weatherlink.com 1.10,2016-08-29 09:06:00,
2016-08-29 05:21:00,60.1,59.0,30.23,East,84,0.0,1.0,96,0.00,,,0.00,weatherlink.com 1.10,2016-08-29 09:21:00,
2016-08-29 05:36:00,60.4,59.0,30.23,SE,132,0.0,2.0,96,0.00,,,0.00,weatherlink.com 1.10,2016-08-29 09:36:00,
2016-08-29 05:51:00,60.6,60.0,30.23,SSE,167,0.0,3.0,96,0.00,,,0.00,weatherlink.com 1.10,2016-08-29 09:51:00,
2016-08-29 06:21:00,60.8,59.0,30.23,SSE,167,0.0,2.0,95,0.00,,,0.00,weatherlink.com 1.10,2016-08-29 10:21:00,
2016-08-29 06:36:00,60.9,60.0,30.23,SSE,167,0.0,2.0,95,0.00,,,0.00,weatherlink.com 1.10,2016-08-29 10:36:00,
2016-08-29 06:51:00,60.9,59.0,30.23,SSE,165,1.0,3.0,94,0.00,,,0.00,weatherlink.com 1.10,2016-08-29 10:51:00,
2016-08-29 07:06:00,60.8,59.0,30.23,SSE,165,0.0,2.0,94,0.00,,,0.00,weatherlink.com 1.10,2016-08-29 11:06:00,
2016-08-29 07:21:00,60.8,59.0,30.23,SSE,165,0.0,2.0,94,0.00,,,0.00,weatherlink.com 1.10,2016-08-29 11:21:00,
2016-08-29 07:36:00,60.5,59.0,30.23,SSE,165,0.0,2.0,93,0.00,,,0.00,weatherlink.com 1.10,2016-08-29 11:36:00,
2016-08-29 07:51:00,60.4,58.0,30.23,SSE,166,0.0,3.0,93,0.00,,,0.00,weatherlink.com 1.10,2016-08-29 11:51:00,
2016-08-29 08:06:00,60.4,59.0,30.24,SSE,166,0.0,0.0,94,0.00,,,0.00,weatherlink.com 1.10,2016-08-29 12:06:00,
2016-08-29 08:21:00,60.6,59.0,30.24,SSE,166,0.0,0.0,94,0.00,,,0.00,weatherlink.com 1.10,2016-08-29 12:21:00,
2016-08-29 08:36:00,61.1,59.0,30.24,SSE,166,0.0,1.0,94,0.00,,,0.00,weatherlink.com 1.10,2016-08-29 12:36:00,
2016-08-29 08:51:00,62.0,61.0,30.24,SSE,166,0.0,3.0,95,0.00,,,0.00,weatherlink.com 1.10,2016-08-29 12:51:00,
2016-08-29 09:06:00,63.3,62.0,30.23,SSW,205,2.0,2.0,94,0.00,,,0.00,weatherlink.com 1.10,2016-08-29 13:06:00,
2016-08-29 09:21:00,64.7,62.0,30.23,SSW,195,1.0,4.0,92,0.00,,,0.00,weatherlink.com 1.10,2016-08-29 13:21:00,
2016-08-29 09:36:00,65.6,63.0,30.24,South,169,2.0,2.0,91,0.00,,,0.00,weatherlink.com 1.10,2016-08-29 13:36:00,
2016-08-29 09:51:00,66.1,63.0,30.24,SSE,157,1.0,4.0,90,0.00,,,0.00,weatherlink.com 1.10,2016-08-29 13:51:00,
2016-08-29 10:07:00,66.3,63.0,30.23,SSW,196,1.0,5.0,90,0.00,,,0.00,weatherlink.com 1.10,2016-08-29 14:07:00,
2016-08-29 10:22:00,66.9,64.0,30.22,SSE,166,1.0,4.0,89,0.00,,,0.00,weatherlink.com 1.10,2016-08-29 14:22:00,
2016-08-29 10:37:00,68.1,64.0,30.22,SW,215,2.0,4.0,86,0.00,,,0.00,weatherlink.com 1.10,2016-08-29 14:37:00,
2016-08-29 10:52:00,68.8,64.0,30.21,South,186,1.0,4.0,84,0.00,,,0.00,weatherlink.com 1.10,2016-08-29 14:52:00,
2016-08-29 11:07:00,68.9,64.0,30.20,SSW,192,1.0,5.0,85,0.00,,,0.00,weatherlink.com 1.10,2016-08-29 15:07:00,
2016-08-29 11:22:00,69.1,65.0,30.19,South,173,1.0,4.0,85,0.00,,,0.00,weatherlink.com 1.10,2016-08-29 15:22:00,
2016-08-29 11:37:00,69.4,65.0,30.19,SSW,205,2.0,4.0,85,0.00,,,0.00,weatherlink.com 1.10,2016-08-29 15:37:00,
2016-08-29 11:52:00,70.2,66.0,30.18,NW,314,1.0,4.0,85,0.00,,,0.00,weatherlink.com 1.10,2016-08-29 15:52:00,
2016-08-29 12:07:00,71.0,66.0,30.17,SSW,209,0.0,3.0,84,0.00,,,0.00,weatherlink.com 1.10,2016-08-29 16:07:00,
2016-08-29 12:22:00,71.1,66.0,30.18,SSW,212,1.0,3.0,84,0.00,,,0.00,weatherlink.com 1.10,2016-08-29 16:22:00,
2016-08-29 12:37:00,72.1,67.0,30.17,SW,236,4.0,5.0,84,0.00,,,0.00,weatherlink.com 1.10,2016-08-29 16:37:00,
2016-08-29 12:52:00,73.6,67.0,30.17,South,188,2.0,7.0,81,0.00,,,0.00,weatherlink.com 1.10,2016-08-29 16:52:00,
2016-08-29 13:11:00,74.1,68.0,30.17,SSW,192,1.0,4.0,81,0.00,,,0.00,weatherlink.com 1.10,2016-08-29 17:11:00,
2016-08-29 13:22:00,74.5,68.0,30.17,South,183,0.0,6.0,81,0.00,,,0.00,weatherlink.com 1.10,2016-08-29 17:22:00,
2016-08-29 13:37:00,75.1,69.0,30.17,South,191,0.0,4.0,81,0.00,,,0.00,weatherlink.com 1.10,2016-08-29 17:37:00,
2016-08-29 13:52:00,76.2,69.0,30.17,South,191,0.0,6.0,79,0.00,,,0.00,weatherlink.com 1.10,2016-08-29 17:52:00,
2016-08-29 14:07:00,77.5,69.0,30.16,SSE,155,0.0,6.0,76,0.00,,,0.00,weatherlink.com 1.10,2016-08-29 18:07:00,
2016-08-29 14:22:00,77.8,70.0,30.16,South,173,3.0,7.0,76,0.00,,,0.00,weatherlink.com 1.10,2016-08-29 18:22:00,
2016-08-29 14:37:00,78.3,70.0,30.15,SW,224,2.0,5.0,75,0.00,,,0.00,weatherlink.com 1.10,2016-08-29 18:37:00,
2016-08-29 15:07:00,78.6,69.0,30.14,ESE,110,1.0,3.0,72,0.00,,,0.00,weatherlink.com 1.10,2016-08-29 19:07:00,
2016-08-29 15:22:00,79.2,69.0,30.14,SW,215,2.0,7.0,70,0.00,,,0.00,weatherlink.com 1.10,2016-08-29 19:22:00,
2016-08-29 15:38:00,79.3,70.0,30.13,South,177,0.0,5.0,72,0.00,,,0.00,weatherlink.com 1.10,2016-08-29 19:38:00,
2016-08-29 15:53:00,79.8,70.0,30.13,South,171,2.0,4.0,72,0.00,,,0.00,weatherlink.com 1.10,2016-08-29 19:53:00,
2016-08-29 16:23:00,80.6,69.0,30.12,NE,37,0.0,5.0,68,0.00,,,0.00,weatherlink.com 1.10,2016-08-29 20:23:00,
2016-08-29 16:38:00,80.0,69.0,30.12,South,180,1.0,5.0,69,0.00,,,0.00,weatherlink.com 1.10,2016-08-29 20:38:00,